Location: Newark
(7.0858°N, 171.3717°E)
Time: 04:40:08
(UTC+00:00)

Vanguard 2 - Pass Details

Date: 01 December 2020
Orbit: 553 x 2937 km, 32.9° (Epoch: 26 January)

Event Time Altitude Azimuth Distance (km) Brightness Sun altitude
Rises 05:15:26 0° 300° (WNW) 3,018 11.1 12.9°
Reaches altitude 10° 05:17:25 10° 298° (WNW) 2,255 10.6 12.5°
Maximum altitude 05:22:36 73° 213° (SSW) 1,027 8.6 11.3°
Drops below altitude 10° 05:31:09 10° 130° (SE) 3,631 10.7 9.4°
Sets 05:35:09 0° 128° (SE) 5,023 11.4 8.5°
